Temperature
17 18 18 17 17 17 16 16 15 15 14 13 12 12 13 13 13 12 12 11 10 10 9 9 9 8 8 8 8 8 8 8 8 9 9 10 10 10 10 10 10 10 9 9
17 17 17 17 17 17 16 16 15 14 13 13 13 13 12 12 12 11 11 10 9 9 8 8 7 7 6 6 6 6 6 6 7 7 8 8 9 9 9 9 9 9 9 9
16 17 17 16 16 16 16 15 14 13 12 11 10 10 11 12 11 10 10 9 8 8 7 7 6 6 5 5 5 5 5 5 5 6 6 7 7 8 8 8 9 9 9 9
15 17 18 16 16 16 15 14 13 12 11 11 11 12 12 11 10 9 9 8 8 7 6 6 6 5 5 5 5 5 5 5 5 5 5 5 5 6 6 7 7 8 8 8
14 16 16 16 16 16 14 13 12 12 11 12 12 10 10 11 9 9 8 8 7 7 6 6 5 5 5 5 5 4 4 4 4 4 4 4 5 5 5 6 6 7 7 7
14 17 16 16 16 16 14 13 13 12 11 11 10 7 8 10 9 8 8 7 7 6 6 6 5 5 5 5 4 4 4 4 4 4 4 4 4 4 4 5 5 6 6 6
14 15 15 15 16 15 14 14 14 13 12 11 9 8 10 9 8 8 7 7 6 6 6 6 5 5 5 5 5 4 4 4 4 4 4 4 4 4 4 4 5 5 5 6
13 15 15 15 14 13 14 14 14 13 12 11 10 10 9 8 8 7 7 7 6 6 6 6 6 5 5 5 5 5 4 4 4 4 4 4 4 4 4 4 4 4 5 5
13 14 15 16 16 16 15 14 13 12 12 11 10 9 8 8 7 7 7 7 6 6 6 6 6 5 5 5 5 5 5 5 4 4 4 4 4 4 4 4 4 4 4 5
12 13 14 15 15 15 14 14 13 12 11 10 9 9 8 7 7 7 7 7 6 6 6 6 6 6 6 6 5 5 5 5 5 4 4 4 4 4 4 4 4 4 4 4
13 13 14 15 15 15 14 13 12 12 11 10 9 8 7 7 7 7 7 7 6 6 6 6 6 6 6 6 5 5 5 5 5 5 4 4 4 4 4 4 4 4 4 4
14 15 13 16 17 15 14 13 12 11 10 9 8 8 7 7 7 7 7 7 7 7 7 7 6 6 6 6 6 5 5 5 5 5 5 4 4 4 4 4 4 4 4 4
19 19 18 17 16 14 13 13 12 11 10 9 8 8 7 7 7 7 7 7 7 7 7 7 6 6 6 6 6 6 5 5 5 5 5 5 4 4 4 4 4 4 4 4
19 18 16 16 15 14 13 12 12 11 10 9 8 8 7 7 7 7 7 7 7 7 7 7 7 7 6 6 6 6 6 6 5 5 5 5 5 5 5 5 5 5 5 5
18 17 17 16 15 14 13 12 11 11 10 9 8 8 7 7 7 7 7 7 7 8 7 7 7 7 7 6 6 6 6 6 6 6 5 5 5 5 5 5 5 5 5 5
18 17 16 15 15 14 13 12 11 10 10 9 8 8 7 7 7 7 7 7 7 7 7 7 7 7 7 7 7 6 6 6 6 6 6 6 6 6 5 5 5 5 5 5
18 17 16 15 15 14 13 12 11 10 9 9 8 8 7 7 7 7 7 7 7 7 7 7 7 8 7 7 7 7 6 6 6 6 6 6 6 6 6 6 5 5 5 5
19 19 17 16 15 14 13 12 11 10 9 9 8 8 7 7 6 6 7 7 8 8 8 8 8 8 8 8 7 7 7 6 6 6 6 6 6 6 6 6 6 5 5 5
18 18 17 16 15 14 13 12 11 10 9 9 8 8 7 7 6 6 6 6 7 7 8 8 8 8 8 8 8 7 7 7 7 7 6 6 6 6 6 6 6 6 5 5
18 17 16 15 14 14 13 12 11 10 9 9 8 8 7 7 7 6 6 6 6 6 7 7 8 8 8 8 8 8 7 7 7 7 7 7 6 6 6 6 6 6 6 6
18 17 16 15 14 14 13 12 11 10 10 9 8 8 7 7 7 6 6 6 7 7 7 7 8 8 8 8 8 8 8 7 7 7 7 7 7 6 6 6 6 6 6 6
18 17 16 15 14 14 13 12 11 11 10 9 8 8 7 7 7 7 6 6 6 6 7 7 7 8 8 8 9 8 8 8 7 7 7 7 7 6 6 6 6 6 6 6
18 17 16 15 14 13 13 12 11 11 10 9 8 8 7 7 6 6 6 6 6 6 6 7 7 8 8 9 9 9 9 8 8 8 7 7 7 7 7 6 6 7 7 7
17 17 16 15 14 13 13 12 11 11 10 9 8 7 7 7 7 6 5 5 6 6 6 7 7 8 8 9 9 9 9 9 9 8 8 8 7 7 7 7 7 7 7 7
17 16 15 15 14 14 13 12 12 11 10 9 8 7 7 6 6 6 5 5 6 6 6 6 7 7 8 8 8 9 9 9 9 9 9 8 8 8 8 7 7 7 8 8
16 16 15 15 15 14 14 13 12 11 10 9 8 7 7 6 6 6 5 5 5 5 6 6 7 7 8 8 8 8 9 9 9 9 9 9 9 8 8 8 8 8 8 9
15 15 15 15 14 14 13 13 12 11 10 9 8 7 6 6 6 5 5 5 5 5 5 5 6 6 7 7 8 8 8 9 9 9 10 10 9 9 9 9 9 9 9 9
Wind_Speed
2 2 5 4 4 4 4 3 5 7 7 7 6 8 9 9 10 11 11 11 11 11 11 11 11 11 11 12 13 13 13 14 15 16 15 15 14 13 12 11 12 11 10 10
2 4 6 4 3 2 0 2 4 5 7 6 6 7 9 11 11 11 12 12 12 12 12 12 11 12 12 12 12 12 13 15 15 15 15 15 14 13 12 11 11 11 11 11
2 3 2 2 3 2 4 5 5 7 7 8 9 9 9 11 11 11 13 13 13 13 13 13 13 13 13 13 13 13 14 15 15 14 15 14 15 13 12 11 10 10 11 11
2 2 4 6 3 4 5 6 7 8 8 9 11 10 10 10 9 11 12 11 12 12 12 13 13 14 14 14 14 15 15 15 15 14 15 14 13 13 12 10 9 9 10 11
3 1 5 3 4 3 4 7 7 7 9 9 9 8 7 7 7 9 10 12 13 14 15 13 14 14 15 15 15 15 16 16 15 15 15 15 14 13 12 10 9 9 8 10
4 2 5 7 3 1 2 6 6 6 8 8 7 7 7 7 9 11 12 12 13 13 14 13 14 14 14 16 16 16 16 16 16 15 16 16 15 13 11 10 10 10 10 9
4 4 7 6 2 3 2 7 4 5 7 7 5 7 9 11 10 10 12 14 14 14 14 14 14 13 15 16 16 16 16 16 16 15 14 14 13 12 11 10 9 9 9 8
4 3 7 5 6 6 8 4 3 5 6 7 8 9 9 10 11 13 13 13 13 13 15 14 13 13 15 16 16 15 15 15 15 14 13 12 10 10 9 9 9 8 8 8
8 8 5 6 8 6 6 5 5 5 6 6 7 8 9 9 10 12 13 13 13 14 16 15 13 13 16 17 16 15 15 15 14 13 11 10 10 9 8 7 7 7 6 7
4 7 6 6 5 4 6 6 5 5 6 5 7 9 10 10 11 12 12 14 13 15 16 16 16 15 15 16 15 15 15 14 12 12 11 9 7 7 6 6 6 6 7 7
5 6 4 8 8 7 5 5 5 5 5 6 7 9 9 9 11 11 12 12 12 14 16 17 17 17 16 15 15 15 14 12 12 10 10 9 8 6 6 6 7 6 6 6
8 9 8 8 8 8 7 7 7 6 6 6 6 8 9 9 10 11 13 14 14 15 16 17 17 17 16 14 14 14 12 11 9 9 8 7 7 7 6 6 7 8 7 5
6 5 7 4 5 7 7 8 7 6 6 6 6 7 8 8 8 11 13 14 14 15 16 17 17 16 15 14 14 13 11 10 8 8 7 7 7 6 6 4 3 2 1 4
6 7 4 6 7 8 7 5 4 4 5 6 6 7 8 8 10 12 13 14 14 15 15 15 16 16 15 15 14 12 10 10 9 7 6 6 5 5 4 3 2 3 5 6
9 8 7 6 7 6 5 3 4 5 6 7 6 8 8 9 11 13 13 14 14 14 15 16 17 17 16 15 13 12 9 7 7 6 6 5 4 4 3 3 3 3 3 5
9 6 5 7 8 8 6 6 6 7 7 6 7 8 9 9 11 12 12 11 13 15 16 16 17 17 17 15 13 9 7 10 8 6 6 5 5 4 3 3 3 2 3 2
11 9 9 8 9 8 8 8 7 7 7 7 8 8 9 10 11 12 13 13 12 13 13 14 17 18 17 14 12 8 7 7 8 6 5 5 5 4 3 2 2 3 2 2
12 12 10 9 8 9 9 8 7 7 7 7 7 7 8 9 11 13 14 15 14 13 12 15 18 19 17 14 11 7 6 5 4 4 4 5 4 4 3 2 2 3 2 2
9 10 10 10 9 9 8 7 7 7 7 6 5 7 7 8 9 11 11 12 13 15 18 19 23 18 17 17 15 6 6 5 4 3 3 4 5 4 3 3 2 2 2 2
9 9 10 9 8 7 7 7 7 6 6 4 5 6 7 8 9 10 10 8 7 9 15 17 17 15 16 16 17 7 6 5 4 3 3 3 3 4 3 3 3 2 2 2
11 10 10 10 9 8 8 7 6 6 5 4 4 6 7 8 8 9 9 9 10 12 15 15 13 14 15 15 14 8 7 6 4 3 2 2 2 3 3 3 3 2 2 2
10 10 11 10 9 8 7 6 6 6 5 4 5 5 6 7 8 8 7 6 10 15 13 11 12 16 20 16 10 9 9 8 6 4 2 1 1 1 2 2 2 2 2 2
9 10 10 10 9 7 5 5 6 5 5 4 4 4 5 6 5 6 8 8 10 14 12 10 16 22 21 12 10 10 10 9 8 6 4 2 1 1 0 1 1 2 2 2
9 10 10 8 6 5 6 7 6 4 4 3 3 3 3 4 5 4 6 10 12 14 10 12 16 19 16 10 10 10 10 10 9 8 6 4 2 0 1 1 1 1 1 1
10 10 9 9 9 9 9 7 5 4 4 2 2 2 2 2 3 6 7 9 12 12 10 12 15 16 12 10 10 10 10 9 10 9 7 6 5 2 0 1 1 1 1 1
10 11 11 12 11 9 7 7 6 5 4 3 2 1 2 3 4 5 6 8 11 11 10 9 11 12 11 11 11 11 10 10 10 9 9 8 7 5 3 1 1 2 2 2
8 8 7 7 7 7 7 8 7 7 6 5 3 1 1 2 3 5 6 7 8 8 9 9 9 10 10 10 10 10 10 10 10 9 9 9 8 6 5 4 1 1 1 1
Wind_Direction
51 56 101 91 67 60 92 169 210 258 263 258 267 283 285 287 292 300 299 296 295 295 294 293 295 295 295 295 296 297 297 295 290 287 283 278 271 261 249 238 235 231 231 232
58 64 88 77 41 48 98 244 251 271 274 251 279 292 287 287 292 297 299 301 302 301 301 301 301 302 301 299 297 296 295 293 292 291 289 284 278 270 259 247 237 228 226 228
196 233 338 273 228 232 244 235 223 243 256 289 298 293 284 289 299 301 303 305 304 304 302 302 303 303 302 297 297 295 293 293 292 291 290 288 286 280 267 254 243 231 227 224
119 65 262 253 232 217 235 242 220 234 259 278 274 278 279 280 285 291 297 299 302 304 303 301 299 301 300 301 300 298 296 293 292 291 289 287 285 282 275 263 250 240 233 225
111 223 285 264 219 190 232 270 220 237 265 278 295 316 293 275 281 288 296 301 304 304 304 301 302 304 305 306 304 303 302 299 295 291 289 286 282 278 274 266 257 246 237 225
124 184 251 247 204 137 148 285 228 231 268 286 321 325 291 296 311 306 304 303 303 303 303 304 305 307 309 310 308 307 306 303 298 291 285 283 279 276 272 264 257 251 243 229
157 223 261 237 166 97 192 268 223 231 263 277 257 245 275 302 303 297 297 300 303 305 308 308 308 310 310 310 309 308 307 305 300 294 288 283 279 271 266 260 253 245 242 237
156 210 264 197 146 186 222 239 242 253 263 267 266 274 288 296 297 303 305 306 308 310 312 312 312 313 313 311 309 309 308 306 304 300 296 294 285 275 266 257 246 241 238 243
189 213 243 201 202 213 181 210 242 251 267 277 282 286 293 293 297 302 305 309 312 313 314 315 316 315 313 312 312 312 310 308 307 307 303 295 288 282 272 257 243 234 232 239
234 257 238 232 232 213 193 213 243 260 277 278 278 284 290 292 298 305 308 314 315 318 318 318 318 317 312 312 314 313 313 311 311 311 310 304 292 284 273 257 244 233 230 234
242 263 254 255 233 218 213 233 263 277 272 268 272 281 283 293 302 308 313 313 314 318 318 318 319 317 315 316 317 318 316 315 315 313 311 310 303 289 275 259 247 233 228 223
219 213 193 232 222 196 206 234 248 257 267 269 266 274 287 296 301 307 312 315 318 320 321 320 319 317 318 319 321 321 321 321 318 318 318 318 318 315 292 271 263 240 235 231
208 184 181 219 186 183 201 228 240 243 255 274 282 282 290 295 298 306 312 317 321 321 320 318 318 319 322 324 324 322 321 320 318 322 325 328 328 328 330 350 30 42 255 236
172 135 156 190 195 201 206 223 238 264 276 277 278 288 295 295 303 313 317 319 320 320 320 320 322 324 326 325 324 323 322 322 325 324 327 328 330 332 335 351 26 47 43 51
185 180 188 194 189 191 201 216 243 275 282 288 285 290 299 306 312 315 315 318 321 323 325 327 328 328 327 326 325 325 323 323 324 330 334 335 340 351 7 25 46 58 61 56
180 180 174 175 191 205 211 224 241 262 273 279 287 294 301 304 307 309 313 320 327 328 326 327 328 327 326 327 327 325 321 328 340 341 345 350 355 4 17 35 51 62 66 68
156 185 195 204 212 214 215 220 227 246 264 276 282 295 307 315 320 324 328 329 326 319 319 327 329 328 328 330 328 324 321 327 342 351 353 353 357 6 13 28 46 60 58 55
184 185 180 184 194 207 218 225 233 246 257 265 287 303 312 317 319 322 325 328 330 330 336 338 335 332 332 334 332 325 323 325 331 339 351 358 360 9 25 43 61 73 73 73
182 178 183 188 185 186 200 217 230 242 259 271 287 298 301 303 306 312 320 328 335 340 340 337 332 335 336 337 339 329 332 333 334 339 355 7 17 25 35 48 63 71 75 78
183 179 179 184 182 184 199 214 226 243 257 261 280 297 308 312 317 321 324 321 322 329 329 329 332 338 339 337 339 337 340 339 342 343 356 20 25 28 38 50 62 65 72 74
185 178 178 183 192 200 205 208 214 236 254 257 269 288 299 307 318 324 329 332 334 337 336 331 341 343 339 335 335 347 349 346 345 345 352 16 34 36 39 47 52 52 53 55
184 180 183 185 192 207 214 210 214 230 244 256 274 293 308 315 322 323 312 312 325 332 337 339 345 341 340 337 347 354 356 354 352 351 349 351 20 49 53 58 55 47 45 53
184 180 180 186 195 206 213 216 220 225 232 244 269 292 302 306 314 324 330 328 332 334 337 339 339 341 342 349 354 357 0 360 355 352 351 337 279 213 129 91 78 64 52 56
180 179 181 180 171 187 217 225 219 221 224 235 259 283 300 315 318 309 310 318 330 334 338 337 338 343 348 356 358 359 1 1 357 351 352 355 351 237 197 180 148 124 113 106
181 177 170 171 188 211 218 209 198 201 202 221 253 296 317 305 303 317 324 331 337 340 342 342 344 348 356 359 360 1 1 2 358 355 355 356 358 353 272 209 195 177 162 150
185 188 191 197 204 204 191 180 185 190 188 205 231 274 318 323 323 328 335 341 345 344 347 350 353 355 359 359 0 2 2 360 0 2 0 359 356 358 354 338 201 193 192 188
202 199 199 206 207 194 181 179 183 187 186 188 200 225 309 327 337 345 350 353 352 353 353 354 356 358 359 0 1 3 4 3 2 1 360 0 360 358 356 357 17 143 172 180
Height
1524 1521 1521 1524 1525 1525 1527 1529 1535 1530 1528 1523 1521 1519 1516 1512 1509 1505 1502 1498 1494 1489 1484 1479 1473 1467 1462 1456 1451 1446 1440 1435 1430 1426 1422 1419 1417 1415 1415 1415 1416 1417 1417 1418
1527 1525 1524 1527 1526 1525 1526 1526 1527 1526 1525 1518 1517 1516 1512 1509 1505 1501 1497 1493 1488 1483 1477 1472 1466 1460 1453 1447 1442 1437 1431 1425 1420 1416 1412 1408 1406 1405 1404 1404 1405 1407 1408 1410
1534 1527 1528 1533 1527 1525 1525 1524 1525 1528 1523 1516 1514 1512 1509 1504 1501 1498 1493 1488 1483 1477 1471 1465 1459 1452 1445 1439 1433 1428 1422 1416 1411 1407 1402 1399 1396 1394 1393 1394 1395 1397 1399 1401
1535 1532 1535 1530 1520 1520 1522 1521 1520 1519 1517 1514 1511 1508 1505 1502 1499 1494 1489 1483 1477 1471 1464 1458 1452 1445 1438 1432 1426 1420 1414 1409 1403 1398 1394 1390 1387 1384 1383 1384 1385 1387 1389 1392
1539 1536 1532 1525 1519 1519 1522 1522 1517 1517 1514 1512 1508 1504 1500 1498 1495 1490 1485 1479 1472 1465 1458 1451 1445 1439 1432 1425 1420 1413 1407 1401 1396 1390 1385 1381 1378 1375 1374 1375 1375 1377 1380 1383
1536 1534 1537 1524 1516 1516 1520 1522 1514 1513 1511 1509 1507 1507 1499 1494 1491 1485 1480 1474 1467 1459 1452 1446 1439 1433 1426 1420 1414 1407 1401 1395 1388 1383 1378 1373 1369 1367 1366 1366 1367 1369 1371 1374
1534 1535 1527 1515 1513 1516 1525 1520 1511 1510 1508 1506 1505 1503 1496 1491 1487 1481 1475 1468 1461 1454 1447 1440 1434 1428 1421 1415 1408 1402 1395 1388 1382 1376 1370 1365 1361 1359 1358 1358 1359 1360 1363 1366
1536 1534 1528 1511 1512 1515 1513 1507 1507 1506 1505 1503 1500 1496 1492 1488 1482 1476 1469 1463 1456 1449 1442 1435 1429 1423 1416 1409 1403 1396 1389 1383 1376 1370 1365 1360 1356 1353 1351 1351 1351 1353 1355 1358
1521 1519 1509 1506 1506 1506 1506 1505 1504 1503 1501 1499 1496 1492 1488 1484 1478 1472 1465 1458 1452 1445 1437 1431 1425 1419 1411 1405 1398 1391 1385 1378 1372 1366 1360 1355 1351 1348 1346 1346 1346 1347 1349 1352
1513 1507 1505 1504 1503 1503 1503 1503 1502 1500 1498 1496 1493 1489 1485 1480 1474 1467 1461 1454 1447 1440 1433 1427 1421 1414 1408 1401 1394 1387 1381 1374 1368 1362 1356 1352 1348 1345 1342 1341 1341 1342 1344 1346
1508 1504 1502 1501 1500 1500 1500 1500 1499 1497 1495 1493 1490 1486 1481 1476 1470 1464 1457 1451 1444 1437 1430 1423 1417 1410 1404 1397 1391 1384 1378 1372 1366 1360 1354 1350 1346 1342 1340 1339 1338 1338 1340 1342
1502 1496 1497 1495 1495 1497 1497 1497 1496 1494 1492 1490 1487 1482 1478 1472 1467 1461 1454 1448 1441 1435 1428 1421 1414 1407 1400 1394 1388 1382 1375 1370 1364 1359 1354 1349 1345 1342 1339 1337 1336 1336 1337 1340
1491 1491 1492 1493 1493 1493 1494 1494 1493 1491 1489 1486 1483 1479 1475 1469 1464 1458 1451 1445 1438 1432 1425 1418 1411 1404 1398 1391 1385 1380 1374 1369 1364 1359 1354 1350 1346 1343 1340 1338 1336 1336 1337 1339
1488 1489 1490 1490 1490 1491 1491 1491 1490 1488 1486 1483 1480 1476 1472 1466 1461 1455 1448 1442 1436 1430 1423 1416 1409 1402 1396 1389 1384 1378 1373 1369 1364 1359 1355 1351 1348 1345 1342 1340 1338 1338 1339 1341
1484 1486 1487 1487 1487 1488 1488 1488 1487 1485 1483 1480 1477 1473 1468 1463 1457 1452 1446 1440 1434 1428 1421 1414 1408 1401 1394 1388 1382 1377 1373 1368 1365 1361 1357 1354 1350 1348 1345 1343 1342 1342 1342 1343
1480 1482 1483 1484 1484 1485 1485 1485 1483 1481 1479 1476 1473 1469 1465 1460 1455 1449 1443 1437 1431 1425 1419 1413 1406 1399 1392 1387 1382 1377 1373 1369 1366 1363 1360 1356 1353 1351 1349 1347 1346 1345 1345 1346
1475 1477 1479 1480 1481 1481 1482 1481 1480 1478 1476 1473 1470 1467 1462 1457 1452 1446 1440 1435 1430 1424 1418 1412 1405 1399 1392 1386 1381 1377 1373 1370 1367 1364 1362 1359 1356 1354 1352 1351 1349 1349 1349 1349
1471 1473 1475 1476 1477 1478 1478 1478 1476 1475 1473 1471 1468 1464 1460 1454 1449 1443 1438 1432 1427 1422 1417 1411 1405 1398 1392 1386 1381 1377 1373 1370 1368 1365 1363 1361 1359 1357 1356 1354 1353 1352 1352 1351
1468 1470 1471 1473 1474 1474 1474 1474 1473 1472 1470 1468 1465 1461 1457 1453 1447 1442 1436 1431 1425 1419 1414 1409 1404 1398 1392 1387 1382 1378 1374 1371 1368 1366 1365 1363 1362 1360 1359 1357 1356 1355 1355 1355
1464 1466 1468 1469 1470 1470 1470 1470 1469 1468 1467 1464 1462 1458 1454 1450 1445 1439 1434 1430 1425 1420 1414 1409 1404 1398 1393 1388 1383 1379 1375 1372 1369 1367 1366 1365 1364 1363 1362 1361 1360 1359 1358 1358
1460 1462 1464 1465 1467 1467 1467 1467 1466 1465 1464 1462 1459 1455 1452 1448 1443 1438 1432 1427 1423 1418 1414 1409 1404 1399 1394 1389 1384 1380 1376 1373 1371 1369 1367 1366 1365 1365 1364 1364 1363 1362 1362 1362
1456 1458 1460 1462 1463 1464 1464 1464 1463 1462 1461 1459 1456 1453 1450 1445 1441 1436 1432 1427 1421 1417 1412 1408 1404 1399 1395 1390 1386 1382 1378 1375 1372 1370 1368 1367 1366 1366 1366 1366 1366 1366 1365 1366
1452 1455 1457 1459 1460 1461 1462 1461 1461 1460 1458 1457 1454 1451 1448 1444 1439 1434 1429 1425 1420 1416 1412 1408 1404 1400 1396 1392 1387 1384 1380 1377 1374 1372 1370 1368 1368 1367 1367 1368 1369 1369 1369 1370
1448 1451 1453 1456 1457 1458 1458 1458 1458 1457 1456 1454 1452 1449 1446 1442 1438 1433 1429 1424 1420 1415 1411 1407 1404 1400 1396 1393 1389 1385 1382 1379 1377 1374 1372 1370 1369 1369 1369 1369 1370 1372 1373 1374
1443 1446 1448 1450 1451 1451 1452 1453 1453 1453 1452 1451 1449 1447 1444 1440 1436 1432 1427 1423 1419 1415 1411 1407 1403 1400 1397 1394 1390 1387 1384 1382 1379 1377 1375 1373 1372 1371 1371 1372 1372 1374 1375 1377
1437 1439 1441 1441 1442 1443 1445 1446 1447 1448 1448 1447 1446 1444 1441 1438 1434 1430 1427 1423 1419 1414 1410 1407 1403 1400 1397 1394 1392 1389 1386 1384 1382 1380 1378 1376 1375 1374 1373 1374 1374 1376 1378 1380
1431 1432 1434 1434 1435 1436 1438 1439 1441 1442 1443 1443 1443 1441 1439 1436 1433 1429 1426 1422 1418 1414 1411 1407 1403 1400 1397 1395 1392 1390 1388 1386 1384 1382 1380 1379 1378 1377 1376 1376 1377 1378 1380 1382